Location: Karcze
(52.0945°N, 22.4786°E)
Time: 13:58:05
(UTC+00:00)

Altair - Visible Passes

Search period start: 04 August 2021 00:00
Search period end: 14 August 2021 00:00
Orbit: 1502 x 1682 km, 47.2° (Epoch: 03 August)

Date Brightness Start Highest point End Pass type
(mag) Time Alt. Az. Time Alt. Az. Time Alt. Az.
04 Aug 7.6 00:47:48 15° WSW 00:55:33 59° SSE 01:04:29 10° E visible
04 Aug 8.1 22:25:29 28° SSE 22:27:03 30° SE 22:34:40 10° E visible
05 Aug 7.5 00:23:27 19° SW 00:30:27 57° SSE 00:39:21 10° E visible
05 Aug 8.2 22:01:04 27° SSE 22:02:01 28° SE 22:09:26 10° E visible
05 Aug 7.5 23:59:01 22° SW 00:05:19 55° SSE 00:14:13 10° E visible
06 Aug 7.5 02:00:09 10° W 02:09:22 66° S 02:18:25 10° ESE visible
06 Aug 8.3 21:36:33 26° SE 21:36:59 26° SE 21:44:12 10° E visible
06 Aug 7.6 23:34:30 24° SW 23:40:13 54° SSE 23:49:05 10° E visible
07 Aug 7.5 01:34:59 10° W 01:44:15 66° S 01:53:18 10° ESE visible
07 Aug 8.3 21:11:53 24° SE 21:11:57 24° SE 21:18:56 10° E visible
07 Aug 7.6 23:09:49 26° SW 23:15:06 52° SSE 23:23:56 10° E visible
08 Aug 7.4 01:09:50 10° W 01:19:07 67° S 01:28:11 10° ESE visible
08 Aug 8.4 20:47:00 23° SE 20:47:00 23° SE 20:53:39 10° E visible
08 Aug 7.6 22:44:55 27° SW 22:50:00 50° SSE 22:58:48 10° E visible
09 Aug 7.4 00:44:40 10° WSW 00:53:58 67° S 01:03:03 10° E visible
09 Aug 8.4 20:21:37 21° SE 20:21:54 21° SE 20:28:18 10° E visible
09 Aug 7.6 22:19:28 25° SSW 22:24:54 48° SSE 22:33:39 10° E visible
10 Aug 7.4 00:19:30 10° WSW 00:28:50 66° S 00:37:56 10° E visible
10 Aug 7.6 02:23:53 10° W 02:32:52 54° SSW 02:41:40 10° SE visible
10 Aug 8.5 19:50:41 10° S 19:56:53 19° SE 20:02:57 10° E visible
10 Aug 7.6 21:50:49 10° SW 21:59:48 46° SSE 22:08:30 10° E visible
10 Aug 7.4 23:54:20 10° WSW 00:03:42 66° S 00:12:48 10° E visible
11 Aug 7.6 01:58:44 10° W 02:07:46 56° SSW 02:16:37 10° SE visible
11 Aug 8.5 19:26:06 10° SSE 19:31:52 18° SE 19:37:32 10° E visible
11 Aug 7.7 21:25:47 10° SW 21:34:43 44° SSE 21:43:21 10° E visible
11 Aug 7.4 23:29:10 10° WSW 23:38:34 66° S 23:47:41 10° E visible
12 Aug 7.5 01:33:33 10° W 01:42:39 57° SSW 01:51:33 10° ESE visible
12 Aug 8.6 19:01:35 10° SSE 19:06:52 16° SE 19:12:04 10° E visible
12 Aug 7.7 21:00:45 10° SW 21:09:37 42° SSE 21:18:12 10° E visible
12 Aug 7.4 23:04:00 10° WSW 23:13:26 65° S 23:22:33 10° E visible
13 Aug 7.5 01:08:22 10° W 01:17:33 59° SSW 01:26:29 10° ESE visible
13 Aug 8.7 18:37:11 10° SSE 18:41:53 15° SE 18:46:29 10° E visible
13 Aug 7.8 20:35:45 10° SSW 20:44:32 40° SSE 20:53:02 10° E visible
13 Aug 7.4 22:38:50 10° WSW 22:48:18 64° S 22:57:26 10° E visible
